Zurück zum Katalog

IRIDIUM 171

AktivKommunikationPO
NORAD 43929·PAYLOAD·🇺🇸 United States

Gestartet Jan 11, 2019 von Vandenberg Space Force Base

Loading…

Nächste Überflüge (nächste 24 Stunden)

TLE

AktuellSource: CelesTrak SupGP

Epoche: Sep 14, 2026, 09:54 UTC

1 43929C 19002H   26257.41284722 -.00001787  00000+0 -63912-3 0  2576
2 43929  86.3986 316.6109 0002165  95.1515 355.7157 14.34217341    19

Verfolge IRIDIUM 171 in Echtzeit mit AllMySat

Download on the App Store